Location: Rounton
(54.4000°N, 1.3500°W)
Time: 13:45:35
(UTC+00:00)

Vanguard 2 - Pass Details

Date: 30 November 2021
Orbit: 553 x 2936 km, 32.9° (Epoch: 23 January)

Event Time Altitude Azimuth Distance (km) Brightness Sun altitude
Rises 19:11:32 0° 249° (WSW) 4,530 12.5 -28.7°
Reaches altitude 10° 19:16:17 10° 226° (SW) 4,029 11.7 -29.4°
Maximum altitude 19:21:22 14° 199° (SSW) 4,142 11.3 -30.1°
Drops below altitude 10° 19:27:26 10° 172° (S) 4,969 11.5 -31.0°
Enters shadow 19:34:44 - 153° (SSE) 6,404 11.9 -32.1°
Sets 19:34:49 0° 153° (SSE) 6,420 - -32.1°
